Retour au catalogue

NOAA 16 DEB

ActifSSO
NORAD 41055·DEBRIS·🇺🇸 United States

Lancé Sep 21, 2000 depuis Vandenberg Space Force Base

Loading…

Prochains Passages (prochaines 24 heures)

TLE

FraisSource: Space-Track

Époque: Sep 14, 2026, 06:10 UTC

1 41055U 00055N   26257.25717024  .00002709  00000-0  93251-3 0  9996
2 41055  98.7971  14.1442 0012848 298.3931  61.5959 14.36779552560377

Suivez NOAA 16 DEB en temps réel avec AllMySat

Download on the App Store